Time,TemperatureF,DewpointF,PressureIn,WindDirection,WindDirectionDegrees,WindSpeedMPH,WindSpeedGustMPH,Humidity,HourlyPrecipIn,Conditions,Clouds,dailyrainin,SoftwareType,DateUTC
2013-01-12 00:12:00,38.1,32.0,30.19,NE,37,6.0,-999.0,78,-99.99,,,0.07,weatherlink.com 1.10,2013-01-12 08:12:00,
2013-01-12 00:27:00,37.8,32.0,30.19,NE,39,9.0,-999.0,79,-99.99,,,0.07,weatherlink.com 1.10,2013-01-12 08:27:00,
2013-01-12 00:42:00,38.1,31.0,30.19,NE,49,7.0,-999.0,76,-99.99,,,0.00,weatherlink.com 1.10,2013-01-12 08:42:00,
2013-01-12 00:57:00,38.4,30.0,30.20,North,10,6.0,-999.0,73,-99.99,,,0.00,weatherlink.com 1.10,2013-01-12 08:57:00,
2013-01-12 01:12:00,38.4,30.0,30.20,NNE,13,4.0,-999.0,72,-99.99,,,0.00,weatherlink.com 1.10,2013-01-12 09:12:00,
2013-01-12 01:27:00,38.5,30.0,30.20,NNE,19,5.0,-999.0,71,-99.99,,,0.00,weatherlink.com 1.10,2013-01-12 09:27:00,
2013-01-12 01:42:00,38.5,29.0,30.21,NNE,26,5.0,-999.0,70,-99.99,,,0.00,weatherlink.com 1.10,2013-01-12 09:42:00,
2013-01-12 01:57:00,38.7,29.0,30.20,ENE,59,4.0,-999.0,67,-99.99,,,0.00,weatherlink.com 1.10,2013-01-12 09:57:00,
2013-01-12 02:12:00,38.8,29.0,30.21,NNE,22,4.0,-999.0,68,-99.99,,,0.00,weatherlink.com 1.10,2013-01-12 10:12:00,
2013-01-12 02:27:00,38.4,29.0,30.21,ENE,76,5.0,-999.0,70,-99.99,,,0.00,weatherlink.com 1.10,2013-01-12 10:27:00,
2013-01-12 02:42:00,38.2,29.0,30.21,NE,40,0.0,-999.0,69,-99.99,,,0.00,weatherlink.com 1.10,2013-01-12 10:42:00,
2013-01-12 02:57:00,38.0,29.0,30.22,NW,323,0.0,-999.0,69,-99.99,,,0.00,weatherlink.com 1.10,2013-01-12 10:57:00,
2013-01-12 03:12:00,37.8,30.0,30.22,NE,51,0.0,-999.0,73,-99.99,,,0.00,weatherlink.com 1.10,2013-01-12 11:12:00,
2013-01-12 03:27:00,37.6,27.0,30.22,NE,44,4.0,-999.0,67,-99.99,,,0.00,weatherlink.com 1.10,2013-01-12 11:27:00,
2013-01-12 03:42:00,37.8,26.0,30.22,NNE,28,3.0,-999.0,63,-99.99,,,0.00,weatherlink.com 1.10,2013-01-12 11:42:00,
2013-01-12 03:57:00,37.6,26.0,30.22,NE,42,3.0,-999.0,63,-99.99,,,0.00,weatherlink.com 1.10,2013-01-12 11:57:00,
2013-01-12 04:12:00,37.5,27.0,30.23,NE,48,4.0,-999.0,65,-99.99,,,0.00,weatherlink.com 1.10,2013-01-12 12:12:00,
2013-01-12 04:27:00,37.1,26.0,30.23,NE,36,0.0,-999.0,65,-99.99,,,0.00,weatherlink.com 1.10,2013-01-12 12:27:00,
2013-01-12 04:42:00,37.3,26.0,30.23,North,9,4.0,-999.0,64,-99.99,,,0.00,weatherlink.com 1.10,2013-01-12 12:42:00,
2013-01-12 04:57:00,37.4,25.0,30.23,NE,36,0.0,-999.0,62,-99.99,,,0.00,weatherlink.com 1.10,2013-01-12 12:57:00,
2013-01-12 05:12:00,37.7,24.0,30.23,NE,48,0.0,-999.0,57,-99.99,,,0.00,weatherlink.com 1.10,2013-01-12 13:12:00,
2013-01-12 05:27:00,37.9,22.0,30.23,ENE,59,0.0,-999.0,54,-99.99,,,0.00,weatherlink.com 1.10,2013-01-12 13:27:00,
2013-01-12 05:42:00,37.8,23.0,30.24,East,82,0.0,-999.0,55,-99.99,,,0.00,weatherlink.com 1.10,2013-01-12 13:42:00,
2013-01-12 05:57:00,37.8,21.0,30.24,ENE,73,3.0,-999.0,52,-99.99,,,0.00,weatherlink.com 1.10,2013-01-12 13:57:00,
2013-01-12 06:12:00,37.9,21.0,30.25,ESE,122,0.0,-999.0,50,-99.99,,,0.00,weatherlink.com 1.10,2013-01-12 14:12:00,
2013-01-12 06:27:00,38.0,20.0,30.25,East,88,3.0,-999.0,48,-99.99,,,0.00,weatherlink.com 1.10,2013-01-12 14:27:00,
2013-01-12 06:42:00,37.5,19.0,30.26,ESE,108,0.0,-999.0,48,-99.99,,,0.00,weatherlink.com 1.10,2013-01-12 14:42:00,
2013-01-12 06:57:00,37.4,20.0,30.27,ENE,78,0.0,-999.0,50,-99.99,,,0.00,weatherlink.com 1.10,2013-01-12 14:57:00,
2013-01-12 07:12:00,37.4,23.0,30.28,East,94,0.0,-999.0,56,-99.99,,,0.00,weatherlink.com 1.10,2013-01-12 15:12:00,
2013-01-12 07:27:00,37.3,22.0,30.28,East,94,0.0,-999.0,55,-99.99,,,0.00,weatherlink.com 1.10,2013-01-12 15:27:00,
2013-01-12 07:42:00,37.0,22.0,30.29,NW,311,0.0,-999.0,56,-99.99,,,0.00,weatherlink.com 1.10,2013-01-12 15:42:00,
2013-01-12 07:57:00,37.1,22.0,30.29,NW,311,0.0,-999.0,55,-99.99,,,0.00,weatherlink.com 1.10,2013-01-12 15:57:00,
2013-01-12 08:12:00,38.9,24.0,30.30,NW,311,0.0,-999.0,56,-99.99,,,0.00,weatherlink.com 1.10,2013-01-12 16:12:00,
2013-01-12 08:27:00,40.6,24.0,30.30,NW,311,0.0,-999.0,51,-99.99,,,0.00,weatherlink.com 1.10,2013-01-12 16:27:00,
2013-01-12 08:42:00,39.9,23.0,30.30,NW,311,0.0,-999.0,51,-99.99,,,0.00,weatherlink.com 1.10,2013-01-12 16:42:00,
2013-01-12 08:57:00,40.4,22.0,30.31,NW,311,0.0,-999.0,49,-99.99,,,0.00,weatherlink.com 1.10,2013-01-12 16:57:00,
2013-01-12 09:12:00,41.3,24.0,30.30,NW,311,0.0,-999.0,50,-99.99,,,0.00,weatherlink.com 1.10,2013-01-12 17:12:00,
2013-01-12 09:26:00,41.1,26.0,30.30,NW,311,0.0,-999.0,55,-99.99,,,0.00,weatherlink.com 1.10,2013-01-12 17:26:00,
2013-01-12 09:41:00,41.5,28.0,30.30,NW,311,0.0,-999.0,60,-99.99,,,0.00,weatherlink.com 1.10,2013-01-12 17:41:00,
2013-01-12 09:56:00,42.0,29.0,30.30,NW,311,0.0,-999.0,61,-99.99,,,0.00,weatherlink.com 1.10,2013-01-12 17:56:00,
2013-01-12 10:11:00,41.3,27.0,30.30,NW,311,0.0,-999.0,57,-99.99,,,0.00,weatherlink.com 1.10,2013-01-12 18:11:00,
2013-01-12 10:26:00,42.2,29.0,30.30,WNW,299,2.0,-999.0,60,-99.99,,,0.00,weatherlink.com 1.10,2013-01-12 18:26:00,
2013-01-12 10:41:00,42.2,29.0,30.29,West,267,1.0,-999.0,60,-99.99,,,0.00,weatherlink.com 1.10,2013-01-12 18:41:00,
2013-01-12 10:56:00,42.1,29.0,30.28,West,261,0.0,-999.0,60,-99.99,,,0.00,weatherlink.com 1.10,2013-01-12 18:56:00,
2013-01-12 11:11:00,42.5,29.0,30.28,West,261,0.0,-999.0,60,-99.99,,,0.00,weatherlink.com 1.10,2013-01-12 19:11:00,
2013-01-12 11:26:00,42.9,30.0,30.27,WSW,242,0.0,-999.0,60,-99.99,,,0.00,weatherlink.com 1.10,2013-01-12 19:26:00,
2013-01-12 11:42:00,43.3,30.0,30.27,WSW,256,1.0,-999.0,61,-99.99,,,0.00,weatherlink.com 1.10,2013-01-12 19:42:00,
2013-01-12 11:57:00,43.2,31.0,30.26,West,269,3.0,-999.0,62,-99.99,,,0.00,weatherlink.com 1.10,2013-01-12 19:57:00,
2013-01-12 12:12:00,42.8,31.0,30.25,WSW,251,0.0,-999.0,63,-99.99,,,0.00,weatherlink.com 1.10,2013-01-12 20:12:00,
2013-01-12 12:27:00,43.4,31.0,30.25,West,265,1.0,-999.0,62,-99.99,,,0.00,weatherlink.com 1.10,2013-01-12 20:27:00,
2013-01-12 12:42:00,43.9,32.0,30.24,WSW,248,1.0,-999.0,64,-99.99,,,0.00,weatherlink.com 1.10,2013-01-12 20:42:00,
2013-01-12 12:57:00,43.6,31.0,30.23,West,269,3.0,-999.0,61,-99.99,,,0.00,weatherlink.com 1.10,2013-01-12 20:57:00,
2013-01-12 13:12:00,42.9,31.0,30.23,WSW,254,0.0,-999.0,63,-99.99,,,0.00,weatherlink.com 1.10,2013-01-12 21:12:00,
2013-01-12 13:27:00,43.0,31.0,30.23,West,259,0.0,-999.0,63,-99.99,,,0.00,weatherlink.com 1.10,2013-01-12 21:27:00,
2013-01-12 13:42:00,43.1,32.0,30.23,West,273,1.0,-999.0,64,-99.99,,,0.00,weatherlink.com 1.10,2013-01-12 21:42:00,
2013-01-12 13:57:00,43.4,31.0,30.22,WSW,255,0.0,-999.0,63,-99.99,,,0.00,weatherlink.com 1.10,2013-01-12 21:57:00,
2013-01-12 14:12:00,43.7,32.0,30.22,West,263,0.0,-999.0,63,-99.99,,,0.00,weatherlink.com 1.10,2013-01-12 22:12:00,
2013-01-12 14:27:00,43.6,31.0,30.21,West,260,0.0,-999.0,62,-99.99,,,0.00,weatherlink.com 1.10,2013-01-12 22:27:00,
2013-01-12 14:42:00,43.9,32.0,30.21,WSW,249,2.0,-999.0,63,-99.99,,,0.00,weatherlink.com 1.10,2013-01-12 22:42:00,
2013-01-12 14:57:00,43.0,32.0,30.21,WSW,252,0.0,-999.0,65,-99.99,,,0.00,weatherlink.com 1.10,2013-01-12 22:57:00,
2013-01-12 15:12:00,43.2,32.0,30.21,WSW,249,0.0,-999.0,66,-99.99,,,0.00,weatherlink.com 1.10,2013-01-12 23:12:00,
2013-01-12 15:27:00,42.9,33.0,30.21,WSW,255,2.0,-999.0,67,-99.99,,,0.00,weatherlink.com 1.10,2013-01-12 23:27:00,
2013-01-12 15:42:00,43.3,33.0,30.21,WSW,249,0.0,-999.0,67,-99.99,,,0.00,weatherlink.com 1.10,2013-01-12 23:42:00,
2013-01-12 15:57:00,42.2,32.0,30.20,WSW,250,0.0,-999.0,68,-99.99,,,0.00,weatherlink.com 1.10,2013-01-12 23:57:00,
2013-01-12 16:12:00,42.0,33.0,30.20,WSW,249,2.0,-999.0,70,-99.99,,,0.00,weatherlink.com 1.10,2013-01-13 00:12:00,
2013-01-12 16:27:00,41.8,32.0,30.20,West,260,0.0,-999.0,68,-99.99,,,0.00,weatherlink.com 1.10,2013-01-13 00:27:00,
2013-01-12 16:41:00,40.9,31.0,30.20,WSW,257,0.0,-999.0,68,-99.99,,,0.00,weatherlink.com 1.10,2013-01-13 00:41:00,
2013-01-12 16:56:00,40.7,31.0,30.20,WSW,257,0.0,-999.0,69,-99.99,,,0.00,weatherlink.com 1.10,2013-01-13 00:56:00,
2013-01-12 17:11:00,40.0,31.0,30.20,South,175,0.0,-999.0,70,-99.99,,,0.00,weatherlink.com 1.10,2013-01-13 01:11:00,
2013-01-12 17:26:00,38.6,30.0,30.20,ESE,120,0.0,-999.0,71,-99.99,,,0.00,weatherlink.com 1.10,2013-01-13 01:26:00,
2013-01-12 17:42:00,37.2,29.0,30.20,East,94,0.0,-999.0,73,-99.99,,,0.00,weatherlink.com 1.10,2013-01-13 01:42:00,
2013-01-12 17:57:00,37.1,28.0,30.20,East,91,0.0,-999.0,70,-99.99,,,0.00,weatherlink.com 1.10,2013-01-13 01:57:00,
2013-01-12 18:12:00,37.1,27.0,30.20,ENE,77,0.0,-999.0,66,-99.99,,,0.00,weatherlink.com 1.10,2013-01-13 02:12:00,
2013-01-12 18:27:00,37.4,27.0,30.20,ENE,78,0.0,-999.0,65,-99.99,,,0.00,weatherlink.com 1.10,2013-01-13 02:27:00,
2013-01-12 18:42:00,37.3,26.0,30.20,ENE,78,0.0,-999.0,63,-99.99,,,0.00,weatherlink.com 1.10,2013-01-13 02:42:00,
2013-01-12 18:57:00,37.3,27.0,30.20,ENE,75,0.0,-999.0,66,-99.99,,,0.00,weatherlink.com 1.10,2013-01-13 02:57:00,
2013-01-12 19:11:00,37.1,27.0,30.19,NE,43,0.0,-999.0,68,-99.99,,,0.00,weatherlink.com 1.10,2013-01-13 03:11:00,
2013-01-12 19:26:00,37.5,28.0,30.19,NNE,33,0.0,-999.0,68,-99.99,,,0.00,weatherlink.com 1.10,2013-01-13 03:26:00,
2013-01-12 19:41:00,37.9,28.0,30.19,NE,36,0.0,-999.0,67,-99.99,,,0.00,weatherlink.com 1.10,2013-01-13 03:41:00,
2013-01-12 19:56:00,38.2,28.0,30.19,NE,49,0.0,-999.0,66,-99.99,,,0.00,weatherlink.com 1.10,2013-01-13 03:56:00,
2013-01-12 20:11:00,38.4,28.0,30.19,NE,36,0.0,-999.0,66,-99.99,,,0.00,weatherlink.com 1.10,2013-01-13 04:11:00,
2013-01-12 20:26:00,38.9,28.0,30.20,NE,54,1.0,-999.0,64,-99.99,,,0.00,weatherlink.com 1.10,2013-01-13 04:26:00,
2013-01-12 20:41:00,39.1,27.0,30.20,ENE,64,0.0,-999.0,63,-99.99,,,0.00,weatherlink.com 1.10,2013-01-13 04:41:00,
2013-01-12 20:56:00,39.1,27.0,30.19,East,100,0.0,-999.0,63,-99.99,,,0.00,weatherlink.com 1.10,2013-01-13 04:56:00,
2013-01-12 21:11:00,39.1,27.0,30.18,ENE,71,0.0,-999.0,62,-99.99,,,0.00,weatherlink.com 1.10,2013-01-13 05:11:00,
2013-01-12 21:26:00,39.1,27.0,30.19,NE,38,1.0,-999.0,62,-99.99,,,0.00,weatherlink.com 1.10,2013-01-13 05:26:00,
2013-01-12 21:41:00,38.8,27.0,30.19,NE,42,0.0,-999.0,62,-99.99,,,0.00,weatherlink.com 1.10,2013-01-13 05:41:00,
2013-01-12 21:56:00,38.5,26.0,30.19,NE,44,0.0,-999.0,62,-99.99,,,0.00,weatherlink.com 1.10,2013-01-13 05:56:00,
2013-01-12 22:11:00,38.7,27.0,30.20,NNE,30,0.0,-999.0,62,-99.99,,,0.00,weatherlink.com 1.10,2013-01-13 06:11:00,
2013-01-12 22:26:00,38.5,26.0,30.20,NE,44,2.0,-999.0,62,-99.99,,,0.00,weatherlink.com 1.10,2013-01-13 06:26:00,
2013-01-12 22:41:00,38.5,26.0,30.20,NNE,32,0.0,-999.0,62,-99.99,,,0.00,weatherlink.com 1.10,2013-01-13 06:41:00,
2013-01-12 22:56:00,38.4,26.0,30.21,North,9,0.0,-999.0,62,-99.99,,,0.00,weatherlink.com 1.10,2013-01-13 06:56:00,
2013-01-12 23:11:00,38.3,26.0,30.20,NE,34,0.0,-999.0,61,-99.99,,,0.00,weatherlink.com 1.10,2013-01-13 07:11:00,
2013-01-12 23:26:00,37.5,27.0,30.21,NE,49,0.0,-999.0,65,-99.99,,,0.00,weatherlink.com 1.10,2013-01-13 07:26:00,
2013-01-12 23:41:00,37.5,26.0,30.22,NE,38,0.0,-999.0,63,-99.99,,,0.00,weatherlink.com 1.10,2013-01-13 07:41:00,
2013-01-12 23:56:00,37.2,26.0,30.22,NNE,33,4.0,-999.0,63,-99.99,,,0.00,weatherlink.com 1.10,2013-01-13 07:56:00,